Hourly Weather Roundup
Issued by NWS Central Illinois

Home | Current Version | Previous Version | Text Only | Print | Product List | Glossary On
Versions: 1 2 3 4 5 6 7 8 9 10 11 12 13 14 15 16 17 18 19 20 21 22 23 24 25 26 27 28 29 30 31 32 33 34 35 36 37 38 39 40 41 42 43 44 45 46 47 48 49 50
000
NZUS43 KILX 290010
HWRILX

AREA WEATHER ROUNDUP
NATIONAL WEATHER SERVICE, LINCOLN IL
700 PM CDT SUN AUG 28 2016


CITY           SKY/WX    TMP DP  RH WIND       PRES   REMARKS
BLOOMINGTON    PTCLDY    73  69  87 SE5       30.15F
6HR MIN TEMP:  73; 6HR MAX TEMP:  87; 6HR PCP: TRACE;

CHAMPAIGN      CLOUDY    81  71  71 NE9       30.14S HX  85
6HR MIN TEMP:  81; 6HR MAX TEMP:  89; 6HR PCP: TRACE;

DANVILLE       PTCLDY    79  74  86 E7        30.13R HX  82
6HR MIN TEMP:  79; 6HR MAX TEMP:  89; 6HR PCP:  0.17;

DECATUR        PTCLDY    86  74  67 NE6       30.12F HX  94
6HR MIN TEMP:  86; 6HR MAX TEMP:  91;

EFFINGHAM      PTCLDY    85  77  75 CALM      30.12S HX  95
FLORA          PTCLDY    85  75  72 CALM      30.10S HX  94
6HR MIN TEMP:  84; 6HR MAX TEMP:  93;

GALESBURG      PTCLDY    74  67  79 E6        30.15R
JACKSONVILLE   CLEAR     82  75  78 NE6       30.10F HX  89
6HR MIN TEMP:  82; 6HR MAX TEMP:  86;

LACON          PTCLDY    73  71  92 CALM      30.13S
6HR MIN TEMP:  70; 6HR MAX TEMP:  87; 6HR PCP:  1.60;

LAWRENCEVILLE  PTCLDY    85  77  77 NE5       30.10S HX  95
6HR MIN TEMP:  85; 6HR MAX TEMP:  93;

LITCHFIELD     CLEAR     89  73  59 E5        30.11S HX  96
$$


CITY           SKY/WX    TMP DP  RH WIND       PRES   REMARKS
LINCOLN        PTCLDY    77  73  87 NE5       30.13F
6HR MIN TEMP:  77; 6HR MAX TEMP:  90;

MACOMB         CLOUDY    78  69  73 E13G18    30.16R
MATTOON        CLEAR     84  75  74 CALM      30.11F HX  92
6HR MIN TEMP:  84; 6HR MAX TEMP:  90;

MT CARMEL AP   MOCLDY    81  76  84 CALM      30.09F HX  88
6HR MIN TEMP:  81; 6HR MAX TEMP:  92;

OLNEY-NOBLE AP MOCLDY    84  79  84 SE3       30.11R HX  96
PARIS          CLEAR     84  80  87 CALM      30.13F HX  96
6HR MIN TEMP:  84; 6HR MAX TEMP:  90;

PEORIA         PTCLDY    76  71  85 E5        30.13F
6HR MIN TEMP:  74; 6HR MAX TEMP:  88;

PONTIAC        LGT RAIN  74  73  95 N7        30.14F
RANTOUL        PTCLDY    82  78  89 N6        30.14F HX  90
6HR MIN TEMP:  81; 6HR MAX TEMP:  90; 6HR PCP:  0.08;

ROBINSON       PTCLDY    82  77  86 NE5       30.11F HX  89
6HR MIN TEMP:  82; 6HR MAX TEMP:  91;

SPRINGFIELD    CLEAR     82  73  74 NE15      30.11F HX  87
6HR MIN TEMP:  77; 6HR MAX TEMP:  90; 6HR PCP:  0.27;

TAYLORVILLE    MOCLDY    83  73  72 SE3       30.11S HX  89
$$

...REGIONAL REPORTS...


CITY           SKY/WX    TMP DP  RH WIND       PRES   REMARKS
CHICAGO O`HARE CLOUDY    75  68  78 E8        30.17S
KANKAKEE       DRIZZLE   73  71  94 NE3       30.16F
MOLINE         CLOUDY    74  70  87 E10       30.16R
MOUNT STERLING CLOUDY    80  72  76 NE3       30.11S HX  84
MOUNT VERNON   CLEAR     84  73  70 CALM      30.10R HX  91
PITTSFIELD     CLEAR     83  77  82 N5        30.12S HX  91
QUINCY         PTCLDY    83  73  72 NE6       30.11R HX  89
ROCKFORD       CLOUDY    77  68  73 S7        30.17S
$$


CITY           SKY/WX    TMP DP  RH WIND       PRES   REMARKS
BURLINGTON     CLOUDY    80  74  81 NE6       30.11F HX  85
CEDAR RAPIDS   CLOUDY    81  75  82 E6        30.12R HX  87
DES MOINES     CLOUDY    77  69  76 NW3       30.10F
KIRKSVILLE     PTCLDY    79  69  71 E5        30.12R HX  81
OTTUMWA        CLOUDY    81  75  82 SE3       30.11R HX  87
ST LOUIS       PTCLDY    91  69  48 E10       30.08S HX  96
$$


CITY           SKY/WX    TMP DP  RH WIND       PRES   REMARKS
TERRE HAUTE    PTCLDY    83  75  77 N5        30.12S HX  90
EVANSVILLE     CLEAR     88  74  63 CALM      30.09S HX  96
INDIANAPOLIS   MOCLDY    81  70  69 NE6       30.14S HX  84
LAFAYETTE      CLEAR     73  72  96 NE3       30.13F
MADISON        CLOUDY    78  69  73 NE5       30.17S HX  80
MILWAUKEE      PTCLDY    72  67  84 SE7       30.19R
$$






USA.gov is the U.S. government's official web portal to all federal, state and local government web resources and services.